Location: Deer Lodge Site
(39.6809°N, 119.9392°W)
Time: 16:47:58
(UTC-08:00)

Amateur Radio Satellites - All Passes

Search period start: 05 December 2016 16:17
Search period end: 06 December 2016 16:17
Location: Deer Lodge Site, 39.6809°N, 119.9392°W

Satellite Date Start Highest point End Downlink Frequencies (MHz)
Time Altitude Azimuth
GOMX 1 05 Dec 16:25:07 16:29:11 33° 69° (ENE) 16:33:31 467.674
NOAA 15 05 Dec 16:34:38 16:39:08 30° 67° (ENE) 16:43:38 137.62
Cosmos 2491 05 Dec 16:35:07 16:41:38 23° 66° (ENE) 16:48:05 435.465 / 435.565
Cubesat XI-IV 05 Dec 16:35:51 16:40:21 28° 66° (ENE) 16:44:52 437.490
AO-7 05 Dec 16:36:10 16:41:25 18° 269° (W) 16:46:45 29.400- 29.500
DOVE 4 05 Dec 16:38:53 16:42:25 21° 65° (ENE) 16:46:07 437.250
RS-15 05 Dec 16:44:34 16:57:01 88° 240° (WSW) 17:09:00 29.354- 29.394
MOZHAYETS 4 05 Dec 16:44:59 16:48:31 22° 293° (WNW) 16:52:01
CUBESAT XI-V 05 Dec 16:45:18 16:49:53 54° 100° (E) 16:54:27 437.345
BRITE-PL 05 Dec 16:46:35 16:50:46 58° 260° (W) 16:55:15 437.365/2234.400
LilacSat-2 05 Dec 17:00:41 17:04:19 40° 73° (ENE) 17:07:56 437.200
YUBILEINY 05 Dec 17:06:53 17:09:49 12° 74° (ENE) 17:12:46 435.215
AIST 2 05 Dec 17:15:08 17:19:22 74° 241° (WSW) 17:23:33 435.215
KKS-1 05 Dec 17:18:47 17:22:19 23° 293° (WNW) 17:25:50 437.445
STARS 05 Dec 17:25:37 17:29:44 39° 289° (WNW) 17:33:50 437.465
HORYU 2 05 Dec 17:30:29 17:34:03 23° 265° (W) 17:37:39 437.375
HO-68 05 Dec 17:33:07 17:38:39 25° 59° (ENE) 17:44:11 435.675
ISS 05 Dec 17:43:00 17:45:37 21° 336° (NNW) 17:48:16 145.825
CUTE-I 05 Dec 17:49:00 17:54:18 63° 258° (WSW) 17:59:39 437.470
NOAA 18 05 Dec 17:53:58 17:59:31 87° 259° (W) 18:05:06 137.9125
CINEMA 3 05 Dec 17:59:45 18:04:11 35° 70° (ENE) 18:08:43 145.822/145.860
GOMX 1 05 Dec 18:03:43 18:07:19 23° 267° (W) 18:11:10 467.674
NOAA 15 05 Dec 18:14:09 18:18:49 32° 263° (W) 18:23:30 137.62
DOVE 4 05 Dec 18:15:13 18:19:43 43° 263° (W) 18:24:32 437.250
Cubesat XI-IV 05 Dec 18:15:18 18:20:15 37° 262° (W) 18:25:13 437.490
CUTE 1.7 + AOD 2 05 Dec 18:15:54 18:19:26 27° 70° (ENE) 18:22:59 437.475
CUBEBUG 2 05 Dec 18:22:35 18:25:25 16° 65° (ENE) 18:28:14 437.445
CUBESAT XI-V 05 Dec 18:24:04 18:26:47 16° 296° (WNW) 18:29:32 437.345
Cosmos 2504 05 Dec 18:27:13 18:33:16 23° 79° (E) 18:39:31 435.465 / 435.565
Cosmos 2491 05 Dec 18:30:40 18:39:22 76° 266° (W) 18:48:02 435.465 / 435.565
CANX-2 05 Dec 18:33:12 18:37:16 49° 74° (ENE) 18:41:20 2200.000
STRAND 1 05 Dec 18:34:27 18:38:40 25° 95° (E) 18:42:51 437.568
LilacSat-2 05 Dec 18:36:57 18:38:47 13° 268° (W) 18:40:36 437.200
AAUSAT CUBESAT 2 05 Dec 18:42:19 18:45:08 18° 67° (ENE) 18:47:58 437.432
YUBILEINY 05 Dec 18:56:17 19:04:54 73° 93° (E) 19:13:37 435.215
RS-15 05 Dec 18:59:19 19:07:41 22° 261° (W) 19:15:54 29.354- 29.394
SEEDS 05 Dec 18:59:29 19:03:33 57° 74° (ENE) 19:07:39 437.485
UWE-3 05 Dec 19:04:43 19:08:36 27° 69° (ENE) 19:12:28 435.000/436.395/437.385
COMPASS 1 05 Dec 19:10:46 19:14:45 50° 74° (ENE) 19:18:45 437.405
CUSAT 1 05 Dec 19:14:41 19:16:49 14° 76° (ENE) 19:19:14 437.405
HO-68 05 Dec 19:18:41 19:25:46 65° 257° (WSW) 19:32:56 435.675
AIST 1 05 Dec 19:18:55 19:22:57 41° 92° (E) 19:27:03
ISS 05 Dec 19:22:16 19:23:06 11° 356° (N) 19:23:57 145.825
CINEMA 3 05 Dec 19:37:16 19:41:19 26° 266° (W) 19:45:28 145.822/145.860
NOAA 18 05 Dec 19:40:21 19:40:52 10° 271° (W) 19:41:24 137.9125
PCSat 05 Dec 19:40:58 19:45:34 27° 50° (NE) 19:50:09 145.827
SO-50 05 Dec 19:43:00 19:47:38 53° 117° (ESE) 19:52:14 436.795
DELFI C3 05 Dec 19:45:42 19:47:11 12° 65° (ENE) 19:48:40 145.870
ZACube-1 05 Dec 19:46:11 19:50:31 44° 73° (ENE) 19:54:49 437.345
CUTE 1.7 + AOD 2 05 Dec 19:51:48 19:55:13 24° 265° (W) 19:58:38 437.475
FUNcube-1 05 Dec 19:54:03 19:58:26 50° 73° (ENE) 20:02:46 145.935
CUBEBUG 2 05 Dec 19:56:53 20:01:33 56° 260° (W) 20:06:14 437.445
CANX-2 05 Dec 20:11:27 20:13:23 13° 269° (W) 20:15:19 2200.000
STRAND 1 05 Dec 20:13:15 20:17:53 36° 291° (WNW) 20:22:29 437.568
AAUSAT CUBESAT 2 05 Dec 20:16:37 20:20:21 34° 263° (W) 20:24:07 437.432
Cosmos 2504 05 Dec 20:17:20 20:25:37 74° 279° (W) 20:34:28 435.465 / 435.565
Oscar 11 05 Dec 20:25:15 20:29:34 77° 257° (WSW) 20:33:54 145.826/435.025
Cosmos 2491 05 Dec 20:31:12 20:34:35 13° 285° (WNW) 20:37:58 435.465 / 435.565
SEEDS 05 Dec 20:38:30 20:39:35 11° 270° (W) 20:40:40 437.485
UWE-3 05 Dec 20:40:52 20:44:56 29° 264° (W) 20:48:59 435.000/436.395/437.385
COMPASS 1 05 Dec 20:48:55 20:50:35 12° 269° (W) 20:52:14 437.405
CUSAT 1 05 Dec 20:55:07 20:58:36 37° 263° (W) 21:03:03 437.405
YUBILEINY 05 Dec 20:55:54 21:02:32 24° 294° (WNW) 21:09:15 435.215
AIST 1 05 Dec 20:58:12 21:00:46 15° 289° (WNW) 21:03:22
ISS 05 Dec 20:58:42 21:00:44 15° 17° (NNE) 21:02:46 145.825
HUMSAT D 05 Dec 21:17:00 21:21:13 76° 76° (ENE) 21:25:24 437.325/437.525
DELFI C3 05 Dec 21:17:44 21:21:32 50° 260° (W) 21:25:22 145.870
PRISM 05 Dec 21:22:46 21:26:55 80° 286° (WNW) 21:31:05 437.425
PCSat 05 Dec 21:24:00 21:29:07 44° 248° (WSW) 21:34:13 145.827
ZACube-1 05 Dec 21:24:02 21:26:58 17° 267° (W) 21:29:54 437.345
SO-50 05 Dec 21:24:47 21:28:23 21° 315° (NW) 21:31:58 436.795
FUNcube-1 05 Dec 21:32:19 21:34:54 15° 268° (W) 21:37:28 145.935
DANDE 05 Dec 21:38:33 21:41:16 40° 263° (W) 21:44:33 436.750
UNISAT 6 05 Dec 21:50:09 21:54:21 42° 98° (E) 21:58:25 437.425
SPROUT 05 Dec 22:12:45 22:14:04 11° 63° (ENE) 22:15:22 437.525
Cosmos 2504 05 Dec 22:16:23 22:20:44 15° 301° (WNW) 22:25:12 435.465 / 435.565
TIGRISAT 05 Dec 22:20:06 22:24:31 87° 99° (E) 22:28:49 435.000
ANTELSAT 05 Dec 22:21:30 22:25:55 85° 287° (WNW) 22:30:13 437.575/2403.000
JAS-2 05 Dec 22:25:32 22:29:15 19° 94° (E) 22:33:05 435.910
ESTCUBE 1 05 Dec 22:26:03 22:30:26 61° 75° (ENE) 22:34:52 437.505/2401.250
NANOSAT C BR1 05 Dec 22:33:03 22:34:20 11° 90° (E) 22:35:38 145.865
AISAT 05 Dec 22:34:05 22:38:00 32° 70° (ENE) 22:41:58 437.250
ISS 05 Dec 22:34:28 22:37:46 62° 36° (NE) 22:41:03 145.825
QB50P2 05 Dec 22:37:34 22:40:05 15° 92° (E) 22:42:35 145.880/145.840
POLYITAN 1 05 Dec 22:38:16 22:40:37 14° 92° (E) 22:42:56 437.675
50 SAT 05 Dec 22:40:48 22:43:40 24° 71° (ENE) 22:46:33 437.505
QB50P1 05 Dec 22:50:42 22:53:51 20° 94° (E) 22:56:59 145.935-145.965
DUCHIFAT 1 05 Dec 22:53:54 22:56:52 18° 94° (E) 22:59:49 145.980
CUBEBUG 1 05 Dec 23:00:14 23:04:35 88° 81° (E) 23:09:00 437.445
VELOX 1 05 Dec 23:10:27 23:14:51 77° 75° (ENE) 23:19:17 145.980
POPSAT HIP 1 05 Dec 23:11:38 23:15:31 34° 97° (E) 23:19:21 437.405
Cosmos 2499 05 Dec 23:19:28 23:26:14 27° 82° (E) 23:33:13 435.465 / 435.565
DX 1 05 Dec 23:24:33 23:28:48 58° 74° (ENE) 23:33:06 434.975-435.025
UNISAT 6 05 Dec 23:27:51 23:30:42 17° 295° (WNW) 23:33:30 437.425
UKube-1 05 Dec 23:32:08 23:36:19 52° 73° (ENE) 23:40:31 .
TISAT 1 05 Dec 23:34:10 23:36:32 15° 65° (ENE) 23:38:54 437.305
GONETS M04 05 Dec 23:35:18 23:42:35 31° 84° (E) 23:49:50
SPROUT 05 Dec 23:45:08 23:49:24 67° 259° (WSW) 23:53:42 437.525
BUGSAT 1 05 Dec 23:51:05 23:54:49 30° 97° (E) 23:58:28 437.445
ESTCUBE 1 06 Dec 00:06:03 00:07:38 12° 270° (W) 00:09:12 437.505/2401.250
NANOSAT C BR1 06 Dec 00:06:15 00:10:24 56° 286° (WNW) 00:14:31 145.865
JAS-2 06 Dec 00:09:39 00:14:35 46° 289° (WNW) 00:19:44 435.910
AISAT 06 Dec 00:11:03 00:14:29 22° 265° (W) 00:17:57 437.250
QB50P2 06 Dec 00:12:04 00:16:05 42° 288° (WNW) 00:20:02 145.880/145.840
ISS 06 Dec 00:12:12 00:13:54 13° 231° (SW) 00:15:37 145.825
POLYITAN 1 06 Dec 00:12:35 00:16:37 44° 288° (WNW) 00:20:37 437.675
50 SAT 06 Dec 00:14:31 00:16:56 18° 265° (W) 00:19:22 437.505
QB50P1 06 Dec 00:25:53 00:29:40 32° 290° (WNW) 00:33:24 145.935-145.965
DUCHIFAT 1 06 Dec 00:28:49 00:32:38 34° 289° (WNW) 00:36:25 145.980
AUBIESAT-1 06 Dec 00:38:23 00:41:29 20° 60° (ENE) 00:44:43 437.475
O/OREOS (USA 219) 06 Dec 00:40:49 00:43:49 17° 56° (NE) 00:46:49 437.305
PHONESAT 2.4 06 Dec 00:41:45 00:44:20 46° 161° (SSE) 00:46:54 2401.200-2431.200
Gurwin Techsat 1B 06 Dec 00:42:40 00:45:11 13° 90° (E) 00:47:42 435.225
Oscar 19 06 Dec 00:46:05 00:50:35 29° 96° (E) 00:55:05 437.125/150
POPSAT HIP 1 06 Dec 00:47:59 00:51:03 20° 293° (WNW) 00:54:05 437.405
M-CUBED/EXP-1 PRIME 06 Dec 00:49:49 00:53:28 32° 64° (ENE) 00:57:23 437.505
SWISSCUBE 06 Dec 00:57:42 01:01:44 28° 68° (ENE) 01:05:47 437.505
BEESAT 06 Dec 01:01:47 01:05:48 28° 68° (ENE) 01:09:49 436.000
DX 1 06 Dec 01:03:49 01:05:21 12° 269° (W) 01:06:53 434.975-435.025
TISAT 1 06 Dec 01:07:39 01:11:45 48° 260° (W) 01:15:53 437.305
Cosmos 2499 06 Dec 01:10:10 01:18:36 65° 281° (W) 01:27:28 435.465 / 435.565
UKube-1 06 Dec 01:10:40 01:12:39 13° 268° (W) 01:14:38 .
AO-85 06 Dec 01:26:14 01:30:59 45° 117° (ESE) 01:35:25 145.980
BUGSAT 1 06 Dec 01:26:49 01:29:58 21° 293° (WNW) 01:33:06 437.445
ITUPSAT 1 06 Dec 01:28:39 01:33:16 50° 72° (ENE) 01:37:54 437.325
GONETS M04 06 Dec 01:30:24 01:38:54 55° 283° (WNW) 01:47:24
MOZHAYETS 4 06 Dec 02:08:28 02:12:28 30° 69° (ENE) 02:16:26
AUBIESAT-1 06 Dec 02:11:48 02:15:36 36° 258° (WSW) 02:19:39 437.475
PHONESAT 2.4 06 Dec 02:16:52 02:19:32 71° 357° (N) 02:22:10 2401.200-2431.200
O/OREOS (USA 219) 06 Dec 02:19:12 02:23:28 46° 254° (WSW) 02:27:44 437.305
Gurwin Techsat 1B 06 Dec 02:20:20 02:25:38 71° 286° (WNW) 02:30:55 435.225
M-CUBED/EXP-1 PRIME 06 Dec 02:24:50 02:27:59 22° 262° (W) 02:31:20 437.505
Oscar 19 06 Dec 02:25:16 02:29:52 33° 292° (WNW) 02:34:27 437.125/150
SWISSCUBE 06 Dec 02:35:17 02:39:25 29° 263° (W) 02:43:35 437.505
KKS-1 06 Dec 02:39:12 02:42:58 27° 68° (ENE) 02:46:46 437.445
BEESAT 06 Dec 02:39:18 02:43:28 30° 263° (W) 02:47:39 436.000
AO-7 06 Dec 02:42:39 02:49:48 30° 96° (E) 02:56:55 29.400- 29.500
STARS 06 Dec 02:46:36 02:49:13 16° 64° (ENE) 02:51:50 437.465
ITAMSAT 1 06 Dec 02:53:05 02:58:09 53° 101° (E) 03:03:11 435.822/435.867
AO-85 06 Dec 03:07:41 03:11:34 23° 312° (NW) 03:15:15 145.980
ITUPSAT 1 06 Dec 03:08:24 03:11:22 16° 268° (W) 03:14:20 437.325
Cosmos 2499 06 Dec 03:10:15 03:13:42 13° 303° (WNW) 03:17:11 435.465 / 435.565
MOZHAYETS 4 06 Dec 03:45:47 03:49:35 25° 265° (W) 03:53:22
CUBESAT XI-V 06 Dec 03:47:38 03:52:01 47° 73° (ENE) 03:56:25 437.345
PHONESAT 2.4 06 Dec 03:52:09 03:54:48 73° 192° (SSW) 03:57:26 2401.200-2431.200
BEESAT 3 06 Dec 04:14:26 04:17:50 29° 114° (ESE) 04:21:16 437.485
SO-50 06 Dec 04:15:20 04:19:32 36° 51° (NE) 04:23:40 436.795
KKS-1 06 Dec 04:15:41 04:19:27 27° 264° (W) 04:23:15 437.445
STARS 06 Dec 04:20:51 04:25:08 49° 260° (W) 04:29:28 437.465
GOMX 1 06 Dec 04:28:46 04:31:20 13° 89° (E) 04:33:53 467.674
ITAMSAT 1 06 Dec 04:33:37 04:37:11 19° 297° (WNW) 04:40:45 435.822/435.867
AO-7 06 Dec 04:34:45 04:42:55 59° 294° (WNW) 04:51:03 29.400- 29.500
BEESAT 2 06 Dec 04:43:43 04:47:04 28° 114° (ESE) 04:50:29 435.950
BRITE-PL 06 Dec 04:50:49 04:56:08 50° 99° (E) 05:01:36 437.365/2234.400
NOAA 15 06 Dec 04:52:44 04:54:10 11° 89° (E) 04:55:37 137.62
Cubesat XI-IV 06 Dec 04:56:24 04:57:28 11° 89° (E) 04:58:32 437.490
RS-15 06 Dec 05:02:00 05:06:54 14° 94° (E) 05:11:50 29.354- 29.394
YUBILEINY 06 Dec 05:07:49 05:15:41 35° 71° (ENE) 05:23:31 435.215
HORYU 2 06 Dec 05:20:59 05:25:25 69° 101° (ESE) 05:29:49 437.375
CUBESAT XI-V 06 Dec 05:26:49 05:29:38 16° 268° (W) 05:32:27 437.345
PHONESAT 2.4 06 Dec 05:27:55 05:29:45 17° 209° (SSW) 05:31:34 2401.200-2431.200
AIST 1 06 Dec 05:29:22 05:30:04 10° 68° (ENE) 05:30:48
Cosmos 2491 06 Dec 05:36:03 05:42:53 26° 82° (E) 05:49:41 435.465 / 435.565
STRAND 1 06 Dec 05:49:22 05:53:58 34° 69° (ENE) 05:58:34 437.568
BEESAT 3 06 Dec 05:52:16 05:55:27 23° 311° (NW) 05:58:40 437.485
SO-50 06 Dec 05:56:14 05:59:47 23° 248° (WSW) 06:03:17 436.795
GOMX 1 06 Dec 06:04:25 06:09:54 78° 284° (WNW) 06:15:22 467.674
CUTE-I 06 Dec 06:06:52 06:12:07 55° 101° (E) 06:17:18 437.470
LilacSat-2 06 Dec 06:08:39 06:12:26 70° 102° (ESE) 06:16:10 437.200
Cosmos 2504 06 Dec 06:11:32 06:19:46 42° 74° (ENE) 06:27:33 435.465 / 435.565
DOVE 4 06 Dec 06:14:29 06:19:44 59° 99° (E) 06:24:48 437.250
NOAA 18 06 Dec 06:17:06 06:22:21 42° 99° (E) 06:27:32 137.9125
BEESAT 2 06 Dec 06:21:31 06:24:49 25° 311° (NW) 06:28:11 435.950
NOAA 15 06 Dec 06:29:14 06:34:32 83° 286° (WNW) 06:39:50 137.62
BRITE-PL 06 Dec 06:30:05 06:34:14 23° 294° (WNW) 06:38:31 437.365/2234.400
AO-7 06 Dec 06:30:32 06:33:55 13° 314° (NW) 06:37:19 29.400- 29.500
Cubesat XI-IV 06 Dec 06:32:49 06:38:11 86° 287° (WNW) 06:43:30 437.490
HO-68 06 Dec 06:47:58 06:53:49 26° 94° (E) 06:59:37 435.675
HORYU 2 06 Dec 06:59:54 07:01:22 11° 298° (WNW) 07:02:49 437.375
AIST 1 06 Dec 07:03:46 07:08:09 67° 265° (W) 07:12:30
YUBILEINY 06 Dec 07:04:19 07:12:43 51° 271° (W) 07:21:07 435.215
RS-15 06 Dec 07:05:16 07:16:48 68° 114° (ESE) 07:28:54 29.354- 29.394
AIST 2 06 Dec 07:12:07 07:15:34 27° 113° (ESE) 07:19:04 435.215
STRAND 1 06 Dec 07:28:49 07:33:08 27° 264° (W) 07:37:29 437.568
Cosmos 2491 06 Dec 07:30:17 07:38:58 64° 280° (W) 07:47:41 435.465 / 435.565
CINEMA 3 06 Dec 07:32:02 07:36:53 90° 118° (ESE) 07:41:28 145.822/145.860
CUTE 1.7 + AOD 2 06 Dec 07:36:23 07:40:33 59° 101° (E) 07:44:43 437.475
GOMX 1 06 Dec 07:45:44 07:47:03 11° 301° (WNW) 07:48:23 467.674
CUTE-I 06 Dec 07:48:02 07:51:41 19° 297° (WNW) 07:55:20 437.470
CUBEBUG 2 06 Dec 07:49:06 07:53:02 31° 96° (E) 07:56:49 437.445
DOVE 4 06 Dec 07:53:23 07:56:52 18° 297° (WNW) 08:00:18 437.250
CANX-2 06 Dec 07:54:26 07:58:38 71° 285° (WNW) 08:02:50 2200.000
NOAA 18 06 Dec 07:58:14 08:02:44 26° 296° (WNW) 08:07:12 137.9125
AAUSAT CUBESAT 2 06 Dec 07:59:11 08:03:00 35° 97° (E) 08:06:49 437.432
Cosmos 2504 06 Dec 08:05:03 08:13:04 41° 274° (W) 08:20:40 435.465 / 435.565
PRISM 06 Dec 08:10:56 08:14:57 63° 74° (ENE) 08:19:00 437.425
NOAA 15 06 Dec 08:12:15 08:13:28 11° 302° (WNW) 08:14:41 137.62
Oscar 11 06 Dec 08:14:00 08:17:12 20° 94° (E) 08:20:23 145.826/435.025
Cubesat XI-IV 06 Dec 08:15:45 08:17:24 11° 302° (WNW) 08:19:03 437.490
SEEDS 06 Dec 08:19:27 08:23:36 63° 284° (WNW) 08:27:44 437.485
COMPASS 1 06 Dec 08:29:25 08:33:34 74° 285° (WNW) 08:37:43 437.405
UWE-3 06 Dec 08:30:51 08:35:07 60° 100° (E) 08:39:15 435.000/436.395/437.385
HO-68 06 Dec 08:34:50 08:41:52 58° 291° (WNW) 08:48:52 435.675
UNISAT 6 06 Dec 08:47:41 08:51:56 35° 71° (ENE) 08:56:11 437.425
AIST 2 06 Dec 08:50:25 08:53:58 28° 310° (NW) 08:57:35 435.215
DELFI C3 06 Dec 08:56:17 08:59:16 20° 94° (E) 09:02:14 145.870
HUMSAT D 06 Dec 09:03:06 09:04:43 12° 91° (E) 09:06:20 437.325/437.525
DANDE 06 Dec 09:05:24 09:07:58 15° 95° (E) 09:10:14 436.750
ZACube-1 06 Dec 09:11:24 09:15:38 77° 283° (WNW) 09:19:46 437.345
CUTE 1.7 + AOD 2 06 Dec 09:14:19 09:15:52 12° 296° (WNW) 09:17:25 437.475
TIGRISAT 06 Dec 09:17:08 09:21:47 68° 75° (ENE) 09:26:25 435.000
ANTELSAT 06 Dec 09:18:39 09:23:20 75° 76° (ENE) 09:27:59 437.575/2403.000
FUNcube-1 06 Dec 09:18:58 09:23:10 68° 285° (WNW) 09:27:17 145.935
RS-15 06 Dec 09:19:05 09:30:07 42° 319° (NW) 09:41:38 29.354- 29.394
CUBEBUG 2 06 Dec 09:26:06 09:29:26 22° 293° (WNW) 09:32:41 437.445
QB50P2 06 Dec 09:30:43 09:32:08 11° 63° (ENE) 09:33:33 145.880/145.840
POLYITAN 1 06 Dec 09:31:32 09:32:41 11° 62° (ENE) 09:33:50 437.675
Cosmos 2491 06 Dec 09:35:02 09:37:47 12° 303° (WNW) 09:40:32 435.465 / 435.565
AAUSAT CUBESAT 2 06 Dec 09:35:23 09:38:12 18° 293° (WNW) 09:41:01 437.432
QB50P1 06 Dec 09:43:06 09:45:30 15° 65° (ENE) 09:47:54 145.935-145.965
DUCHIFAT 1 06 Dec 09:45:53 09:47:58 13° 64° (ENE) 09:50:04 145.980
GONETS M04 06 Dec 09:47:24 09:51:30 14° 59° (ENE) 09:55:36
Oscar 11 06 Dec 09:49:32 09:53:23 33° 289° (WNW) 09:57:13 145.826/435.025
CUSAT 1 06 Dec 09:59:01 10:01:29 21° 282° (WNW) 10:03:41 437.405
AO-85 06 Dec 09:59:03 10:02:26 26° 49° (NE) 10:05:44 145.980
POPSAT HIP 1 06 Dec 10:03:27 10:06:52 24° 68° (ENE) 10:10:19 437.405
UWE-3 06 Dec 10:09:24 10:11:01 12° 297° (WNW) 10:12:36 435.000/436.395/437.385
JAS-2 06 Dec 10:19:52 10:26:19 65° 74° (ENE) 10:32:04 435.910
ESTCUBE 1 06 Dec 10:20:52 10:23:10 14° 91° (E) 10:25:27 437.505/2401.250
PCSat 06 Dec 10:22:10 10:26:37 27° 108° (ESE) 10:31:06 145.827
UNISAT 6 06 Dec 10:25:03 10:28:42 22° 266° (W) 10:32:21 437.425
HO-68 06 Dec 10:26:37 10:28:04 11° 311° (NW) 10:29:31 435.675
DELFI C3 06 Dec 10:30:38 10:34:04 28° 289° (WNW) 10:37:28 145.870
HUMSAT D 06 Dec 10:36:40 10:40:36 48° 286° (WNW) 10:44:31 437.325/437.525
BUGSAT 1 06 Dec 10:40:15 10:43:23 20° 67° (ENE) 10:46:32 437.445
DANDE 06 Dec 10:46:19 10:50:35 34° 280° (W) 10:53:55 436.750
CUBEBUG 1 06 Dec 10:50:37 10:53:36 17° 93° (E) 10:56:33 437.445
NANOSAT C BR1 06 Dec 10:56:51 11:01:07 89° 258° (WSW) 11:05:26 145.865
TIGRISAT 06 Dec 10:57:20 10:58:52 11° 270° (W) 11:00:25 435.000
ANTELSAT 06 Dec 10:59:52 11:00:29 10° 271° (W) 11:01:07 437.575/2403.000
VELOX 1 06 Dec 11:02:35 11:05:16 16° 92° (E) 11:07:56 145.980
QB50P2 06 Dec 11:03:07 11:07:22 65° 259° (W) 11:11:38 145.880/145.840
Cosmos 2499 06 Dec 11:03:09 11:11:23 47° 75° (ENE) 11:19:01 435.465 / 435.565
POLYITAN 1 06 Dec 11:03:37 11:07:53 69° 258° (WSW) 11:12:11 437.675
DX 1 06 Dec 11:16:14 11:17:10 11° 90° (E) 11:18:07 434.975-435.025
QB50P1 06 Dec 11:16:42 11:20:50 48° 260° (W) 11:25:00 145.935-145.965
DUCHIFAT 1 06 Dec 11:19:01 11:23:11 53° 260° (W) 11:27:22 145.980
SPROUT 06 Dec 11:32:24 11:35:42 21° 94° (E) 11:38:59 437.525
POPSAT HIP 1 06 Dec 11:38:49 11:42:31 28° 264° (W) 11:46:14 437.405
RS-15 06 Dec 11:38:50 11:47:26 21° 352° (N) 11:56:09 29.354- 29.394
AO-85 06 Dec 11:39:31 11:42:44 24° 247° (WSW) 11:45:54 145.980
50 SAT 06 Dec 11:40:17 11:43:29 30° 97° (E) 11:46:40 437.505
GONETS M04 06 Dec 11:41:16 11:50:00 73° 81° (E) 11:58:43
ESTCUBE 1 06 Dec 11:55:52 12:00:16 53° 287° (WNW) 12:04:40 437.505/2401.250
AISAT 06 Dec 12:00:36 12:05:05 73° 102° (ESE) 12:09:32 437.250
Oscar 19 06 Dec 12:02:02 12:06:46 39° 69° (ENE) 12:11:31 437.125/150
Gurwin Techsat 1B 06 Dec 12:02:24 12:06:20 21° 64° (ENE) 12:10:16 435.225
PCSat 06 Dec 12:04:40 12:09:47 41° 305° (NW) 12:14:55 145.827
JAS-2 06 Dec 12:07:26 12:11:40 18° 266° (W) 12:15:38 435.910
BUGSAT 1 06 Dec 12:14:42 12:18:30 33° 263° (W) 12:22:22 437.445
CUBEBUG 1 06 Dec 12:25:51 12:30:01 40° 288° (WNW) 12:34:10 437.445
BEESAT 3 06 Dec 12:32:25 12:35:00 16° 45° (NE) 12:37:35 437.485
VELOX 1 06 Dec 12:37:39 12:41:57 46° 288° (WNW) 12:46:12 145.980
DX 1 06 Dec 12:49:24 12:53:46 65° 285° (WNW) 12:58:05 434.975-435.025
JUGNU 06 Dec 12:49:58 12:50:45 10° 181° (S) 12:51:33 437.505
TISAT 1 06 Dec 12:52:32 12:56:07 26° 96° (E) 12:59:38 437.305
UKube-1 06 Dec 12:55:38 12:59:59 75° 285° (WNW) 13:04:18 .
Cosmos 2499 06 Dec 12:56:43 13:04:12 35° 275° (W) 13:11:14 435.465 / 435.565
BEESAT 2 06 Dec 13:02:29 13:05:04 16° 45° (NE) 13:07:38 435.950
SPROUT 06 Dec 13:07:52 13:11:39 31° 290° (WNW) 13:15:24 437.525
50 SAT 06 Dec 13:14:26 13:16:31 15° 293° (WNW) 13:18:36 437.505
ITUPSAT 1 06 Dec 13:31:37 13:33:56 13° 91° (E) 13:36:15 437.325
AISAT 06 Dec 13:39:36 13:40:54 11° 299° (WNW) 13:42:13 437.250
GONETS M04 06 Dec 13:39:40 13:45:51 22° 280° (W) 13:52:06
AO-7 06 Dec 13:40:42 13:48:13 40° 61° (ENE) 13:55:46 29.400- 29.500
Gurwin Techsat 1B 06 Dec 13:40:47 13:45:54 48° 260° (W) 13:51:04 435.225
Oscar 19 06 Dec 13:42:07 13:46:11 23° 266° (W) 13:50:16 437.125/150
AUBIESAT-1 06 Dec 13:51:44 13:54:45 17° 97° (E) 13:57:40 437.475
RS-15 06 Dec 13:55:36 14:05:54 29° 28° (NNE) 14:16:01 29.354- 29.394
M-CUBED/EXP-1 PRIME 06 Dec 14:03:38 14:07:41 29° 100° (E) 14:11:36 437.505
BEESAT 3 06 Dec 14:09:02 14:12:54 50° 243° (WSW) 14:16:44 437.485
ITAMSAT 1 06 Dec 14:10:03 14:15:16 75° 74° (ENE) 14:20:29 435.822/435.867
TISAT 1 06 Dec 14:28:11 14:31:38 25° 291° (WNW) 14:35:04 437.305
SWISSCUBE 06 Dec 14:35:21 14:40:06 74° 102° (ESE) 14:44:51 437.505
BEESAT 2 06 Dec 14:39:13 14:43:10 53° 242° (WSW) 14:47:04 435.950
BEESAT 06 Dec 14:39:20 14:44:06 73° 102° (ESE) 14:48:49 436.000
O/OREOS (USA 219) 06 Dec 14:52:12 14:55:41 22° 102° (ESE) 14:59:09 437.305
ITUPSAT 1 06 Dec 15:07:26 15:12:08 60° 287° (WNW) 15:16:48 437.325
ISS 06 Dec 15:14:11 15:17:03 28° 134° (SE) 15:19:58 145.825
AUBIESAT-1 06 Dec 15:24:58 15:29:21 46° 293° (WNW) 15:33:33 437.475
AO-7 06 Dec 15:32:58 15:40:49 46° 259° (W) 15:48:46 29.400- 29.500
AIST 2 06 Dec 15:34:11 15:37:03 17° 45° (NE) 15:39:55 435.215
GOMX 1 06 Dec 15:37:32 15:38:54 11° 60° (ENE) 15:40:17 467.674
M-CUBED/EXP-1 PRIME 06 Dec 15:38:01 15:42:02 29° 297° (WNW) 15:45:55 437.505
MOZHAYETS 4 06 Dec 15:40:28 15:45:03 79° 101° (ESE) 15:49:36
CUBESAT XI-V 06 Dec 15:46:41 15:48:42 13° 90° (E) 15:50:41 437.345
Cosmos 2491 06 Dec 15:49:02 15:51:24 11° 57° (ENE) 15:53:45 435.465 / 435.565
CUTE-I 06 Dec 15:52:27 15:53:55 11° 58° (ENE) 15:55:24 437.470
ITAMSAT 1 06 Dec 15:53:10 15:55:15 12° 270° (W) 15:57:20 435.822/435.867
BRITE-PL 06 Dec 16:01:30 16:05:34 44° 72° (ENE) 16:09:56 437.365/2234.400
KKS-1 06 Dec 16:06:28 16:10:55 60° 101° (E) 16:15:20 437.445
NOAA 18 06 Dec 16:07:18 16:08:14 10° 56° (NE) 16:09:10 137.9125
